Le nostre stazioni meteo in Italia

Pubblicità
Il mio iltempo24.it
Achnagart, Gran Bretagna (99191): Temperatura & dewpoint: 14.08.2017 04:00:00 - 20.08.2017 04:00:00 (BST)Achnagart, Gran Bretagna (99191): visibility: 14.08.2017 04:00:00 - 20.08.2017 04:00:00 (BST)Achnagart, Gran Bretagna (99191): precipitazioni: 14.08.2017 04:00:00 - 20.08.2017 04:00:00 (BST)
Data & Tempo tt [°C] td [°C] vv [km] rr [mm]
20.08.2017 04:00:00 12,2 10,1 - 0,0
20.08.2017 03:00:00 12,4 10,2 - 0,0
20.08.2017 02:00:00 12,7 10,1 - 0,0
20.08.2017 01:00:00 13,0 10,7 - 0,0
20.08.2017 00:00:00 13,0 11,4 - 2,0
19.08.2017 23:00:00 12,5 11,3 - 1,2
19.08.2017 22:00:00 14,0 10,6 - 0,0
19.08.2017 21:00:00 14,2 10,5 - 0,0
19.08.2017 20:00:00 14,5 10,7 - 0,0
19.08.2017 19:00:00 14,6 10,9 - 0,0
19.08.2017 18:00:00 14,7 11,2 - 0,0
19.08.2017 17:00:00 14,4 11,7 - 0,0
19.08.2017 16:00:00 14,1 12,1 - 0,0
19.08.2017 15:00:00 14,4 12,5 - 0,2
19.08.2017 14:00:00 - - - 1,0
19.08.2017 13:00:00 14,0 11,6 - 0,8
19.08.2017 12:00:00 14,5 12,1 - 3,2
19.08.2017 11:00:00 13,6 11,5 - 3,4
19.08.2017 10:00:00 13,2 11,4 - 2,4
19.08.2017 09:00:00 13,4 11,2 - 1,8
19.08.2017 08:00:00 12,7 11,0 - 2,8
19.08.2017 07:00:00 12,7 10,6 - 2,2
19.08.2017 06:00:00 12,4 10,3 - 0,8
19.08.2017 05:00:00 12,3 9,8 - 0,2
19.08.2017 04:00:00 13,3 8,4 - 0,0
19.08.2017 03:00:00 12,6 9,1 - 0,0
19.08.2017 02:00:00 12,2 10,1 - 1,8
19.08.2017 01:00:00 12,5 9,8 - 0,6
19.08.2017 00:00:00 12,2 10,8 - 2,6
18.08.2017 23:00:00 13,1 10,5 - 0,2
18.08.2017 22:00:00 12,7 11,3 - 0,8
18.08.2017 21:00:00 13,1 11,7 - 1,2
18.08.2017 20:00:00 13,4 12,0 - 2,4
18.08.2017 19:00:00 13,0 11,4 - 0,2
18.08.2017 18:00:00 14,1 11,1 - 0,0
18.08.2017 17:00:00 13,6 11,5 - 0,4
18.08.2017 16:00:00 13,1 10,5 - 0,4
18.08.2017 15:00:00 13,8 9,8 - 0,2
18.08.2017 14:00:00 14,5 10,1 - 0,0
18.08.2017 13:00:00 15,0 8,9 - 0,0
18.08.2017 12:00:00 14,6 9,4 - 0,0
18.08.2017 11:00:00 12,9 9,9 - 0,0
18.08.2017 10:00:00 11,7 10,4 - 0,0
18.08.2017 09:00:00 10,7 9,9 - 0,4
18.08.2017 08:00:00 11,3 9,3 - 1,2
18.08.2017 07:00:00 11,6 9,9 - 4,4
18.08.2017 06:00:00 12,2 11,7 - 0,4
18.08.2017 05:00:00 12,9 11,6 - 0,2
18.08.2017 04:00:00 12,9 11,2 - 0,0
18.08.2017 03:00:00 12,4 11,2 - 0,4
18.08.2017 02:00:00 12,4 11,3 - 2,0
18.08.2017 01:00:00 12,4 11,1 - 2,6
18.08.2017 00:00:00 13,6 10,0 - 0,0
17.08.2017 23:00:00 13,6 10,5 - 0,0
17.08.2017 22:00:00 13,3 10,1 - 0,0
17.08.2017 21:00:00 13,7 10,0 - 0,0
17.08.2017 20:00:00 15,3 10,6 - 0,0
17.08.2017 19:00:00 16,1 10,4 - 0,0
17.08.2017 18:00:00 16,3 9,9 - 0,0
17.08.2017 17:00:00 16,6 10,2 - 0,0
17.08.2017 16:00:00 17,0 10,1 - 0,0
17.08.2017 15:00:00 17,3 12,3 - 0,0
17.08.2017 14:00:00 16,3 10,8 - 0,2
17.08.2017 13:00:00 15,1 11,9 - 4,6
17.08.2017 12:00:00 14,4 13,3 - 3,0
17.08.2017 11:00:00 13,9 12,6 - 1,0
17.08.2017 10:00:00 14,3 11,6 10 0,4
17.08.2017 09:00:00 16,0 9,8 - 0,0
17.08.2017 08:00:00 15,3 9,9 - 0,0
17.08.2017 07:00:00 15,3 9,6 - 0,0
17.08.2017 06:00:00 15,1 9,6 - 0,0
17.08.2017 05:00:00 14,9 10,3 - 0,0
17.08.2017 04:00:00 15,1 9,9 - 0,0
17.08.2017 03:00:00 14,6 10,1 - 0,2
17.08.2017 02:00:00 15,1 9,9 - 0,0
17.08.2017 01:00:00 15,7 9,8 - 0,0
17.08.2017 00:00:00 16,2 10,7 - 0,0
16.08.2017 23:00:00 16,2 11,8 - 1,0
16.08.2017 22:00:00 15,6 14,7 - 4,2
16.08.2017 21:00:00 15,8 14,3 - 0,4
16.08.2017 20:00:00 16,5 14,1 - 1,4
16.08.2017 19:00:00 15,8 13,7 - 1,4
16.08.2017 18:00:00 15,7 13,2 - 0,8
16.08.2017 17:00:00 15,9 12,7 - 0,4
16.08.2017 16:00:00 15,2 12,5 - 0,6
16.08.2017 15:00:00 15,3 12,1 - 0,0
16.08.2017 14:00:00 15,7 10,8 - 0,0
16.08.2017 13:00:00 15,4 10,1 - 0,2
16.08.2017 12:00:00 15,5 9,3 - 0,0
16.08.2017 11:00:00 16,0 9,6 - 0,0
16.08.2017 10:00:00 16,0 10,0 - 0,0
16.08.2017 09:00:00 15,4 9,3 - 0,0
16.08.2017 08:00:00 14,7 9,1 - 0,0
16.08.2017 07:00:00 13,2 9,0 - 0,0
16.08.2017 06:00:00 11,0 9,3 - 0,0
16.08.2017 05:00:00 11,3 9,8 - 0,0
16.08.2017 04:00:00 11,5 10,1 - 0,0
16.08.2017 03:00:00 12,3 10,5 - 0,2
16.08.2017 02:00:00 11,4 10,6 - 0,8
16.08.2017 01:00:00 11,7 10,5 - 0,0
16.08.2017 00:00:00 11,9 10,5 - 0,4
15.08.2017 23:00:00 12,8 9,7 - 0,0
15.08.2017 22:00:00 14,2 8,5 - 0,2
15.08.2017 21:00:00 13,4 9,7 - 0,0
15.08.2017 20:00:00 13,3 10,4 - 0,4
15.08.2017 19:00:00 14,8 8,8 - 0,0
15.08.2017 18:00:00 15,0 9,3 - 0,0
15.08.2017 17:00:00 14,3 9,4 - 0,0
15.08.2017 16:00:00 15,1 10,6 - 0,4
15.08.2017 15:00:00 14,2 11,5 - 0,6
15.08.2017 14:00:00 16,1 9,1 - 0,0
15.08.2017 13:00:00 14,7 11,2 - 1,6
15.08.2017 12:00:00 14,7 9,5 - 1,2
15.08.2017 11:00:00 15,2 9,0 - 0,0
15.08.2017 10:00:00 14,4 9,2 10 0,0
15.08.2017 09:00:00 14,1 10,0 - 0,0
15.08.2017 08:00:00 13,2 10,9 - 0,0
15.08.2017 07:00:00 11,4 10,7 - 0,0
15.08.2017 06:00:00 11,2 10,8 - 0,0
15.08.2017 05:00:00 11,3 10,9 - 0,0
15.08.2017 04:00:00 11,4 10,8 - 0,0
15.08.2017 03:00:00 12,1 11,5 - 0,0
15.08.2017 02:00:00 12,1 11,3 - 0,0
15.08.2017 01:00:00 12,6 10,8 - 0,0
15.08.2017 00:00:00 13,8 11,0 - 0,0
14.08.2017 23:00:00 14,2 10,9 - 0,0
14.08.2017 22:00:00 15,2 11,0 10 0,0
14.08.2017 21:00:00 15,3 12,1 - 0,0
14.08.2017 20:00:00 15,5 14,1 - 0,0
14.08.2017 19:00:00 15,6 14,6 - 0,8
14.08.2017 18:00:00 16,1 14,4 - 0,2
14.08.2017 17:00:00 16,8 14,1 - 0,0
14.08.2017 16:00:00 16,4 13,6 - 0,0
14.08.2017 15:00:00 15,4 13,5 - 0,4
14.08.2017 14:00:00 13,2 12,1 - 3,6
14.08.2017 13:00:00 13,4 11,5 - 0,4
14.08.2017 12:00:00 13,1 11,3 - 0,8
14.08.2017 11:00:00 12,6 10,5 - 0,2
14.08.2017 10:00:00 12,3 10,3 - 0,4
14.08.2017 09:00:00 11,4 9,9 - 0,6
14.08.2017 08:00:00 11,2 9,6 - 0,2
14.08.2017 07:00:00 10,8 9,3 - 1,2
14.08.2017 06:00:00 11,0 8,9 - 1,2
14.08.2017 05:00:00 12,7 7,5 - 0,0
14.08.2017 04:00:00 12,6 7,6 - 0,0

tt = Temperatura
td = dewpoint
vv = visibility
rr = precipitazioni

Stazioni seguenti

WeatherPro
AMSI
MeteoEarth